Vorticity
54 -4 9 8 27 11 -1 10 20 12 17 30 16 -0 8 4 7 7 9 7 6 7 10 9 9 11 12 12 12 9 6 6 7 5 7 7 6 5 5 7 10 9 6 1
22 -19 27 10 14 -2 10 16 -4 5 -1 24 22 34 9 11 8 10 9 9 7 6 5 7 9 11 10 9 8 10 9 9 7 9 7 7 9 8 8 6 5 5 7 8
26 1 11 25 -11 25 30 -5 28 0 -6 13 -2 12 18 25 21 18 13 9 7 8 7 6 6 8 8 8 10 12 11 8 8 8 10 10 11 9 8 7 6 10 7 6
22 22 11 5 36 1 -17 19 30 18 14 12 18 22 21 11 11 10 8 10 7 7 10 11 9 9 10 9 9 8 8 8 10 10 7 7 8 9 9 8 8 7 2 7
17 23 -15 11 10 7 13 9 2 -10 11 27 1 8 11 9 18 17 10 6 6 6 6 7 8 4 4 5 7 9 9 7 7 10 10 8 8 4 4 6 7 7 8 4
5 11 21 17 9 11 17 24 19 13 6 0 -11 -28 -10 5 -24 -8 11 20 21 20 3 -1 2 3 3 4 2 5 4 3 5 3 4 -0 -0 1 -0 -0 1 1 2 2
24 2 12 24 17 15 13 18 18 17 25 10 16 17 24 12 19 20 21 15 14 14 16 19 22 24 23 16 9 9 13 8 6 5 5 7 10 11 10 12 13 14 14 11
35 -14 14 5 15 7 10 6 16 10 19 20 14 14 11 16 11 14 9 11 13 8 9 9 7 5 5 8 6 9 12 17 20 18 19 14 16 15 12 9 9 8 11 12
31 -3 10 1 11 10 8 8 18 15 10 9 13 14 20 18 15 9 -3 5 7 10 7 7 12 9 11 12 10 8 6 6 6 10 8 7 10 8 6 9 12 10 9 8
25 25 3 12 5 12 3 13 7 10 11 10 10 12 11 14 17 14 13 12 14 10 13 13 10 11 8 8 8 11 12 12 8 9 8 8 6 7 9 11 10 9 8 9
31 11 42 -3 15 13 4 3 9 11 14 12 11 10 9 12 16 15 9 12 20 15 10 10 10 12 11 13 12 13 11 14 18 22 20 21 16 18 17 14 15 13 13 11
13 29 9 23 0 13 16 0 9 13 6 11 13 10 9 10 12 12 15 16 14 12 16 16 16 16 17 15 15 19 21 13 12 10 17 16 16 15 14 14 12 13 13 13
15 24 30 11 11 16 17 12 1 3 11 12 6 7 6 9 10 8 7 6 9 12 10 13 11 12 14 8 11 9 16 8 9 8 13 12 8 9 8 8 9 10 10 9
12 16 19 32 11 12 11 9 14 4 16 21 15 12 8 4 9 14 12 12 12 8 12 9 6 4 6 6 5 3 6 6 12 7 7 9 8 8 15 18 17 16 15 15
19 22 22 25 11 4 5 18 4 10 3 -1 6 7 7 9 7 5 10 9 9 9 9 14 15 11 13 12 10 13 8 7 10 15 7 17 9 20 12 12 12 14 15 14
16 17 21 8 24 13 34 2 8 14 -2 7 4 5 11 13 12 12 13 15 14 14 11 6 3 -3 -3 20 13 9 11 6 0 10 16 17 18 17 13 10 10 11 7 1
33 23 24 20 17 13 -6 6 10 2 5 10 15 13 7 3 4 7 7 -1 0 -4 -4 -4 7 14 15 14 15 7 5 13 19 17 14 11 4 8 13 12 4 1 10 17
18 15 16 15 0 12 21 12 15 16 13 1 -4 -4 1 4 2 -0 2 1 3 10 5 17 15 13 14 12 16 23 30 27 25 24 17 13 11 11 13 13 11 8 24 23
-2 8 16 18 11 -0 -7 0 11 15 12 14 20 22 20 16 13 11 14 9 11 10 26 25 17 19 31 40 34 26 14 12 11 9 7 5 4 6 12 18 19 9 3 2
36 18 -3 3 24 21 28 28 17 15 12 16 13 10 15 18 17 13 21 26 32 36 37 29 23 15 15 10 7 5 4 5 5 7 10 12 12 8 5 3 5 3 4 5
12 11 11 16 18 17 24 24 25 28 29 35 30 24 21 23 20 18 19 16 16 9 11 6 6 7 6 8 9 10 10 10 8 6 6 5 5 5 6 6 6 6 6 7
6 8 8 10 11 7 8 7 12 12 12 12 15 15 12 13 9 8 7 5 5 4 4 7 7 9 10 8 5 7 5 3 4 6 8 9 8 8 8 9 10 11 14 13
5 4 5 7 9 6 8 6 7 7 5 6 7 6 6 6 6 6 6 5 5 5 4 5 8 7 6 3 3 5 8 9 8 8 7 5 7 11 15 18 19 22 24 21
6 6 5 5 5 6 9 7 6 5 5 5 5 4 3 4 5 4 6 4 4 4 5 3 7 6 6 7 8 8 8 8 6 5 9 14 19 20 18 18 18 18 17 17
8 7 6 4 9 9 10 9 6 6 6 6 6 5 5 5 6 5 6 7 6 6 6 6 7 8 9 9 9 8 7 7 12 17 21 21 20 19 19 20 21 21 21 22
6 8 8 8 11 9 7 7 9 8 7 6 6 5 6 5 6 7 6 6 9 9 9 10 11 10 10 9 7 7 11 18 21 21 19 17 17 20 21 20 18 19 17 13
6 4 4 6 7 11 11 9 8 9 10 9 10 10 9 9 9 10 11 12 9 11 12 10 9 9 8 8 11 17 24 22 18 18 23 20 17 14 10 9 10 11 12 13
Height
5497 5514 5523 5534 5545 5553 5561 5567 5573 5580 5585 5588 5596 5607 5620 5626 5636 5643 5651 5657 5662 5667 5673 5679 5684 5688 5692 5696 5699 5701 5703 5701 5702 5705 5709 5711 5712 5715 5716 5715 5719 5717 5715 5713
5493 5504 5513 5524 5534 5543 5551 5559 5568 5572 5575 5575 5586 5598 5605 5613 5623 5631 5637 5644 5649 5655 5659 5664 5670 5675 5680 5683 5685 5688 5692 5690 5691 5689 5693 5697 5700 5702 5703 5703 5702 5703 5702 5704
5486 5497 5506 5512 5522 5529 5540 5550 5557 5563 5565 5570 5580 5586 5593 5599 5609 5616 5621 5629 5635 5641 5646 5651 5654 5659 5666 5668 5672 5675 5675 5678 5678 5682 5682 5680 5683 5687 5689 5688 5686 5693 5691 5691
5482 5491 5499 5503 5510 5518 5527 5536 5543 5551 5556 5563 5571 5576 5582 5588 5593 5599 5607 5612 5620 5627 5632 5638 5642 5644 5651 5656 5659 5660 5661 5664 5667 5668 5668 5667 5668 5669 5670 5671 5675 5671 5681 5674
5478 5483 5488 5494 5500 5508 5516 5523 5534 5541 5549 5555 5560 5565 5570 5577 5581 5589 5595 5600 5609 5613 5618 5623 5630 5632 5632 5640 5645 5646 5648 5649 5651 5654 5653 5653 5653 5654 5654 5654 5657 5659 5659 5658
5473 5477 5483 5490 5494 5501 5507 5513 5521 5530 5536 5541 5548 5556 5561 5567 5573 5576 5583 5590 5596 5598 5601 5607 5612 5617 5620 5622 5627 5631 5633 5634 5635 5637 5637 5636 5635 5642 5641 5641 5638 5639 5641 5641
5466 5471 5479 5485 5489 5494 5500 5505 5511 5518 5526 5532 5538 5544 5550 5556 5562 5566 5571 5577 5582 5586 5589 5594 5598 5603 5606 5608 5610 5613 5616 5619 5618 5618 5618 5615 5621 5624 5622 5621 5623 5623 5623 5621
5461 5467 5472 5477 5483 5489 5493 5498 5504 5510 5515 5523 5529 5535 5540 5545 5550 5556 5560 5566 5571 5575 5579 5583 5586 5589 5592 5594 5596 5598 5601 5602 5602 5602 5600 5599 5602 5607 5607 5605 5606 5606 5605 5604
5458 5461 5466 5472 5478 5484 5489 5493 5498 5503 5509 5514 5520 5525 5530 5535 5539 5546 5550 5555 5560 5564 5568 5571 5572 5575 5578 5580 5582 5585 5586 5586 5587 5585 5584 5583 5588 5590 5589 5587 5587 5588 5587 5586
5453 5455 5461 5466 5472 5478 5484 5487 5492 5497 5502 5507 5513 5517 5521 5525 5529 5534 5539 5543 5547 5551 5554 5557 5560 5563 5566 5567 5568 5572 5572 5572 5572 5570 5567 5567 5573 5574 5572 5572 5574 5573 5571 5570
5449 5451 5455 5460 5466 5472 5478 5481 5485 5490 5495 5500 5505 5508 5512 5516 5520 5525 5528 5533 5535 5538 5542 5545 5546 5548 5551 5554 5554 5555 5557 5558 5557 5556 5553 5554 5556 5556 5557 5556 5554 5554 5554 5552
5444 5446 5450 5456 5461 5467 5472 5477 5480 5482 5487 5493 5497 5502 5506 5510 5514 5517 5519 5523 5525 5527 5530 5532 5533 5536 5537 5537 5541 5539 5544 5542 5540 5542 5538 5538 5537 5539 5539 5539 5538 5538 5537 5534
5439 5441 5445 5450 5456 5460 5466 5471 5475 5478 5481 5486 5490 5495 5500 5504 5507 5509 5513 5514 5516 5518 5520 5521 5523 5525 5526 5527 5528 5527 5528 5526 5525 5523 5523 5520 5521 5522 5523 5523 5522 5521 5521 5518
5432 5435 5438 5444 5449 5454 5459 5465 5470 5473 5476 5479 5484 5488 5493 5496 5500 5503 5505 5507 5509 5510 5511 5512 5513 5514 5515 5516 5515 5517 5515 5515 5512 5510 5508 5503 5507 5507 5507 5506 5505 5504 5502 5500
5427 5431 5435 5439 5444 5449 5454 5459 5464 5467 5471 5473 5477 5481 5486 5490 5492 5495 5497 5499 5500 5501 5503 5504 5506 5505 5504 5504 5504 5508 5503 5503 5497 5496 5495 5493 5491 5494 5492 5491 5490 5489 5487 5484
5424 5427 5431 5435 5440 5445 5449 5453 5458 5461 5464 5467 5470 5474 5478 5482 5484 5486 5487 5489 5490 5491 5492 5493 5494 5495 5493 5490 5494 5495 5492 5489 5485 5486 5484 5482 5481 5480 5479 5477 5477 5475 5473 5470
5423 5425 5428 5432 5436 5440 5444 5449 5452 5455 5457 5460 5464 5467 5471 5474 5476 5478 5479 5480 5481 5482 5482 5482 5483 5483 5479 5478 5481 5479 5478 5475 5473 5472 5471 5470 5470 5467 5467 5465 5463 5461 5459 5456
5423 5424 5426 5429 5433 5435 5438 5442 5445 5448 5452 5455 5457 5461 5464 5465 5467 5468 5470 5471 5471 5471 5470 5471 5470 5470 5467 5465 5467 5467 5463 5461 5461 5460 5459 5458 5458 5456 5454 5451 5449 5447 5444 5441
5424 5424 5425 5427 5430 5432 5433 5435 5438 5440 5444 5445 5450 5452 5453 5454 5455 5456 5457 5457 5456 5457 5457 5458 5458 5456 5455 5456 5454 5454 5453 5452 5452 5450 5449 5446 5444 5442 5440 5437 5435 5433 5431 5429
5424 5425 5426 5426 5427 5428 5429 5430 5431 5432 5434 5437 5439 5442 5443 5445 5445 5445 5447 5446 5445 5444 5448 5447 5447 5448 5450 5449 5447 5446 5445 5443 5441 5439 5437 5435 5432 5430 5428 5425 5423 5420 5418 5415
5425 5424 5424 5424 5424 5425 5425 5424 5425 5427 5428 5430 5432 5432 5433 5436 5437 5437 5439 5438 5439 5439 5441 5440 5440 5442 5443 5440 5438 5437 5435 5433 5431 5429 5426 5424 5421 5418 5415 5411 5408 5405 5402 5399
5423 5423 5422 5423 5423 5423 5423 5423 5424 5424 5426 5427 5428 5429 5430 5431 5431 5432 5433 5433 5433 5433 5434 5433 5433 5435 5433 5431 5429 5427 5425 5422 5420 5417 5414 5410 5406 5403 5399 5394 5390 5386 5382 5378
5419 5419 5420 5420 5420 5420 5420 5420 5421 5422 5422 5423 5424 5425 5425 5426 5426 5426 5426 5425 5425 5425 5424 5424 5426 5423 5421 5419 5417 5415 5412 5409 5406 5402 5399 5394 5389 5384 5380 5375 5370 5367 5363 5358
5413 5413 5415 5414 5416 5416 5416 5415 5416 5416 5417 5418 5418 5419 5419 5419 5419 5419 5419 5418 5417 5415 5416 5416 5413 5411 5409 5407 5404 5400 5397 5393 5388 5384 5379 5374 5369 5364 5359 5355 5352 5348 5345 5342
5405 5405 5407 5409 5409 5409 5409 5409 5409 5409 5409 5410 5410 5410 5411 5410 5410 5409 5409 5407 5406 5406 5406 5403 5401 5398 5396 5393 5389 5386 5382 5377 5372 5366 5362 5357 5352 5348 5345 5339 5335 5330 5328 5326
5397 5397 5399 5400 5400 5400 5400 5400 5401 5401 5401 5401 5402 5401 5401 5401 5400 5400 5398 5398 5397 5396 5393 5391 5389 5387 5384 5380 5376 5371 5367 5361 5356 5351 5346 5343 5338 5334 5331 5326 5321 5318 5315 5313
5387 5390 5389 5389 5390 5390 5391 5391 5392 5392 5392 5392 5391 5391 5391 5390 5389 5390 5389 5387 5385 5383 5381 5379 5377 5374 5371 5366 5362 5357 5352 5347 5342 5338 5334 5330 5326 5322 5319 5315 5311 5307 5304 5300